CW0003 Weather Reports


time (UTC)temp
F
wind
direction
speed
knots
gust
knots
rain 1hr
in
rain 24hr
in
rain mn
in
humidity
%
barometer
mb
20260505013056 60 0.0 0.0 0.00 0.00 0.00 52 1008.2
20260505011552 61 0.0 0.0 0.00 0.00 0.00 50 1007.9
20260505010053 61 0.0 0.0 0.00 0.00 0.00 48 1007.7
20260505004547 62 0.0 0.0 0.00 0.00 0.00 47 1007.3
20260505003050 62 0.0 0.0 0.00 0.00 0.00 47 1007.0
20260505001526 63 0.0 0.0 0.00 0.00 0.00 46 1006.7
20260505000026 64 0.0 0.0 0.00 0.00 0.00 44 1006.4
20260504234515 65 0.0 0.0 0.00 0.00 0.00 43 1005.9
20260504233011 66 0.0 0.0 0.00 0.00 0.00 41 1005.7
20260504231502 67 172 2.6 11.3 0.00 0.00 0.00 37 1005.1
20260504230101 69 196 0.9 7.0 0.00 0.00 0.00 33 1005.1
20260504224559 70 243 2.6 12.2 0.00 0.00 0.00 32 1004.8
20260504223117 70 158 0.9 11.3 0.00 0.00 0.00 31 1004.7
20260504221554 70 166 4.3 10.4 0.00 0.00 0.00 31 1004.8
20260504220053 71 175 2.6 9.6 0.00 0.00 0.00 31 1004.9
20260504214552 70 189 2.6 10.4 0.00 0.00 0.00 32 1004.9
20260504213049 71 177 4.3 17.4 0.00 0.00 0.00 31 1004.9
20260504211626 73 171 3.5 16.5 0.00 0.00 0.00 28 1005.0
20260504210051 74 170 2.6 9.6 0.00 0.00 0.00 28 1004.8
20260504204544 74 236 1.7 12.2 0.00 0.00 0.00 28 1004.9
20260504203043 73 182 6.1 15.6 0.00 0.00 0.00 28 1004.8
20260504201538 72 197 2.6 16.5 0.00 0.00 0.00 30 1004.8
20260504200037 72 205 0.9 9.6 0.00 0.00 0.00 29 1004.9
20260504194537 72 166 3.5 13.0 0.00 0.00 0.00 27 1004.9
20260504193034 72 234 5.2 14.8 0.00 0.00 0.00 27 1004.9
20260504191534 72 173 4.3 19.1 0.00 0.00 0.00 26 1004.9
20260504190027 72 189 4.3 12.2 0.00 0.00 0.00 29 1005.4
20260504184536 72 215 3.5 13.9 0.00 0.00 0.00 28 1005.5
20260504183020 72 165 6.1 15.6 0.00 0.00 0.00 29 1005.7
20260504181516 72 173 2.6 11.3 0.00 0.00 0.00 28 1005.8
20260504180014 71 207 3.5 11.3 0.00 0.00 0.00 29 1005.7
20260504174552 71 200 4.3 20.0 0.00 0.00 0.00 27 1005.8
20260504173052 70 178 4.3 17.4 0.00 0.00 0.00 29 1005.9
20260504171544 70 180 8.7 20.0 0.00 0.00 0.00 31 1006.1
20260504120104 52 173 2.6 7.8 0.00 0.02 0.00 55 1009.2
20260504081537 0 0.0 0.0 0.00 0.02 0.00 1009.1
20260504050025 33 0.0 0.0 0.00 0.02 0.00 88 1009.1
20260504044515 32 0.0 0.0 0.00 0.02 0.00 89 1008.9
20260504043013 32 0.0 0.0 0.00 0.02 0.00 89 1008.9
20260504041600 32 0.0 0.0 0.00 0.02 0.00 87 1008.8
20260504040128 32 0.0 0.0 0.00 0.02 0.00 86 1008.7
20260504034548 32 0.0 0.0 0.00 0.02 0.02 86 1008.8
20260504033047 33 0.0 0.0 0.00 0.02 0.02 86 1008.6
20260504031550 33 0.0 0.0 0.00 0.02 0.02 84 1008.5
20260504030031 33 0.0 0.0 0.00 0.02 0.02 82 1008.4
20260504024526 34 0.0 0.0 0.00 0.02 0.02 83 1008.3
20260504023020 35 0.0 0.0 0.00 0.02 0.02 81 1008.2
20260504021514 35 0.0 0.0 0.00 0.02 0.02 79 1008.2
20260504020112 36 0.0 0.0 0.00 0.02 0.02 78 1008.1
20260504014555 37 0.0 0.0 0.00 0.02 0.02 75 1008.0